Phoenix, AZ

4:01 AM MST on January 24, 2018 (GMT -0700)
Phoenix Sky Harbor International

Weather History for KPHX - June, 2013

Change the Weather History Date:

Sunday, June 2, 2013

  Actual Average Record
Temperature  
Mean Temperature 96 °F 87 °F  
Max Temperature 109 °F 100 °F 110 °F (1977)
Min Temperature 82 °F 74 °F 53 °F (1917)
Degree Days  
Heating Degree Days 0 0  
Month to date heating degree days 0 0  
Since 1 June heating degree days 0 0  
Since 1 July heating degree days 881 935  
Cooling Degree Days 31 22  
Month to date cooling degree days 60 44  
Year to date cooling degree days 1158 930  
Since 1 June cooling degree days 60 44  
Growing Degree Days 46 (Base 50)    
Moisture  
Dew Point 37 °F    
Average Humidity 15    
Maximum Humidity 23    
Minimum Humidity 7    
Precipitation  
Precipitation 0.00 in 0.00 in 0.14 in (1899)
Month to date precipitation 0.00 0.00  
Year to date precipitation 2.61 3.21  
Snow  
Snow 0.00 in - - ()
Month to date snowfall 0.0  
Year to date snowfall 0.0  
Since 1 July snowfall 0.0  
Snow Depth 0.00 in    
Sea Level Pressure  
Sea Level Pressure 29.61 in    
Wind  
Wind Speed 8 mph (WNW)    
Max Wind Speed 22 mph    
Max Gust Speed 28 mph    
Visibility 10 miles    
Events      
T = Trace of Precipitation, MM = Missing Value Source: NWS Daily Summary

Daily Weather History Graph

Daily Weather History Graph

Search for Another Location

Airport or City:

Trip Planner

Search our weather history database for the weather conditions in past years. The results will help you decide how hot, cold, wet, or windy it might be!

Date:

Astronomy

Jun. 02, 2013 Rise Set
Actual Time 5:18 AM MST 7:33 PM MST
Civil Twilight 4:50 AM MST 8:02 PM MST
Nautical Twilight 4:15 AM MST 8:37 PM MST
Astronomical Twilight 3:37 AM MST 9:14 PM MST
Moon 1:32 AM MST (6/2) 2:21 PM MST (6/2)
Length of Visible Light 15h 11m
Length of Day
14h 14m
Waning Crescent, 30% of the Moon is Illuminated
Jun 2
Waning Crescent
Jun 8
New
Jun 16
First Quarter
Jun 23
Full
Jun 29
Last Quarter

Hourly Weather History & Observations

Time (MST) Temp. Dew Point Humidity Pressure Visibility Wind Dir Wind Speed Gust Speed Precip Events Conditions
12:51 AM 93.9 °F 41.0 °F 16% 29.62 in 10.0 mi WNW 5.8 mph - N/A   Mostly Cloudy
1:51 AM 89.1 °F 43.0 °F 20% 29.62 in 10.0 mi SW 3.5 mph - N/A   Mostly Cloudy
2:51 AM 88.0 °F 43.0 °F 21% 29.62 in 10.0 mi Calm Calm - N/A   Scattered Clouds
3:51 AM 84.9 °F 41.0 °F 21% 29.62 in 10.0 mi ENE 5.8 mph - N/A   Scattered Clouds
4:51 AM 84.0 °F 39.0 °F 20% 29.63 in 10.0 mi East 6.9 mph - N/A   Scattered Clouds
5:51 AM 82.9 °F 41.0 °F 23% 29.65 in 10.0 mi East 10.4 mph - N/A   Partly Cloudy
6:51 AM 84.9 °F 41.0 °F 21% 29.67 in 10.0 mi East 8.1 mph - N/A   Partly Cloudy
7:51 AM 88.0 °F 43.0 °F 21% 29.67 in 10.0 mi ESE 8.1 mph - N/A   Partly Cloudy
8:51 AM 93.0 °F 43.0 °F 18% 29.68 in 10.0 mi ESE 9.2 mph - N/A   Partly Cloudy
9:51 AM 98.1 °F 43.0 °F 15% 29.67 in 10.0 mi SE 6.9 mph - N/A   Clear
10:51 AM 100.0 °F 43.0 °F 14% 29.67 in 10.0 mi Variable 4.6 mph - N/A   Clear
11:51 AM 102.9 °F 41.0 °F 12% 29.65 in 10.0 mi Variable 6.9 mph - N/A   Partly Cloudy
12:51 PM 104.0 °F 39.0 °F 11% 29.62 in 10.0 mi Variable 4.6 mph - N/A   Clear
1:51 PM 107.1 °F 36.0 °F 9% 29.60 in 10.0 mi Variable 3.5 mph - N/A   Partly Cloudy
2:51 PM 106.0 °F 37.9 °F 10% 29.58 in 10.0 mi Variable 3.5 mph - N/A   Partly Cloudy
3:51 PM 107.1 °F 37.9 °F 9% 29.55 in 10.0 mi NNW 6.9 mph - N/A   Partly Cloudy
4:51 PM 107.1 °F 30.9 °F 7% 29.53 in 10.0 mi Calm Calm - N/A   Partly Cloudy
5:51 PM 107.1 °F 30.0 °F 7% 29.53 in 10.0 mi WNW 18.4 mph 24.2 mph N/A   Clear
6:51 PM 105.1 °F 30.0 °F 7% 29.54 in 10.0 mi West 20.7 mph - N/A   Clear
7:51 PM 100.9 °F 30.9 °F 9% 29.55 in 10.0 mi WSW 16.1 mph 20.7 mph N/A   Clear
8:51 PM 98.1 °F 32.0 °F 10% 29.57 in 10.0 mi West 12.7 mph - N/A   Clear
9:51 PM 96.1 °F 30.9 °F 10% 29.60 in 10.0 mi West 9.2 mph - N/A   Clear
10:51 PM 95.0 °F 30.9 °F 10% 29.60 in 10.0 mi West 8.1 mph - N/A   Clear
11:51 PM 93.0 °F 30.0 °F 11% 29.60 in 10.0 mi NW 4.6 mph - N/A   Clear